Regional Weather Roundup
Issued by NWS Green Bay, WI

Home | Current Version | Previous Version | Graphics & Text | Print | Product List | Glossary Off
Versions: 1 2 3 4 5 6 7 8 9 10 11 12 13 14 15 16 17 18 19 20 21 22 23 24 25 26 27 28 29 30 31 32 33 34 35 36 37 38 39 40 41 42 43 44 45 46 47 48 49 50

332
ASUS43 KGRB 121400
RWRGRB

NORTH-CENTRAL AND NORTHEAST WISCONSIN REGIONAL WEATHER ROUNDUP
NATIONAL WEATHER SERVICE GREEN BAY WI
800 AM CST FRI FEB 12 2016

WIZ005-009-010>012-018-019-121500-
NORTH CENTRAL WISCONSIN

CITY           SKY/WX    TMP DP  RH WIND       PRES   REMARKS
IRONWOOD       CLOUDY     5   1  85 NW17G24   30.08R VSB 1/2 WCI -14
MANITOWISH WTR NOT AVBL
ARBOR VITAE    NOT AVBL
EAGLE RIVER    NOT AVBL
LAND O LAKES   NOT AVBL
RHINELANDER    MOCLDY     5  -4  66 NW13G22   30.04R WCI -12
PHILLIPS       NOT AVBL
ANTIGO         NOT AVBL
TOMAHAWK       NOT AVBL
MERRILL        NOT AVBL
$$

WIZ013-073-121500-
NORTHEAST WISCONSIN

CITY           SKY/WX    TMP DP  RH WIND       PRES   REMARKS
IRON MOUNTAIN  PTCLDY     9   0  67 W12       29.98R HAZE    WCI  -6
MARINETTE      CLEAR     10   0  61 W9        30.05S WCI  -2
$$

WIZ017-030-035>037-045-121500-
CENTRAL WISCONSIN

CITY           SKY/WX    TMP DP  RH WIND       PRES   REMARKS
MEDFORD        NOT AVBL
WAUSAU         CLEAR      9  -2  61 NW14G25   30.10R WCI  -7
MOSINEE        PTCLDY     9   0  66 NW14G24   30.11R WCI  -8
MARSHFIELD     CLEAR      9  -2  61 NW22      30.12R WCI -11
WISC RAPIDS    PTCLDY    11   2  67 N16       30.15R WCI  -6
STEVENS POINT  NOT AVBL
WAUPACA        NOT AVBL
SHAWANO        CLEAR     13   2  62 W5        30.11R WCI   5
CLINTONVILLE   NOT AVBL
WAUTOMA        NOT AVBL
$$

WIZ038-039-048-051-121500-
FOX VALLEY

CITY           SKY/WX    TMP DP  RH WIND       PRES   REMARKS
NWS GREEN BAY  PTCLDY    12   1  61 NW13      30.10R WCI  -3
APPLETON       MOCLDY    12   0  57 W13G20    30.09R WCI  -3
OSHKOSH        CLOUDY    14   4  64 W16       30.11R WCI  -2
FOND DU LAC    LGT SNOW  14   6  70 NW10      30.12R WCI   1
$$

WIZ022-050-052-121500-
EAST CENTRAL WISCONSIN

CITY           SKY/WX    TMP DP  RH WIND       PRES   REMARKS
EPHRAIM        CLOUDY    12   1  60 W14G23    30.02S WCI  -3
STURGEON BAY   CLEAR     10  -2  56 W13       30.07S WCI  -5
MANITOWOC      NOT AVBL
SHEBOYGAN      MOCLDY    14   4  64 NW14      30.10R WCI  -1
$$

LMZ563-521-522-541>543-121500-
LAKESHORE

STATION/POSITION TIME  TEMP    WIND        PRES    VSBY  WAVE
                       AIR SEA DIR/SP/G                  HT/PER
                 (UTC) (F)     (DEG/KT/KT) (MB)    (MI)  (FT/S)
SHEBOYGAN LKSHOR 1300   15     290/ 11/ 13 1020.7R
KEWAUNEE LKSHORE 1300   13     300/  9/ 14 1017.6S
CHAMBERS ISLAND  1300   12     230/  9/ 17 1017.3S
MENOMINEE LKSHOR 1300   12     250/ 10     1016.7R
$$




USA.gov is the U.S. government's official web portal to all federal, state and local government web resources and services.